#timestamp,LO_Frequency,Hit,StdDev 
1667552415.4,286047001.1,N
1667552435.3,286046998.7,N
1667552455.1,286046999.0,N
1667552475.9,286046996.6,Y
1667552495.7,286046998.3,P
1667552515.5,286047001.1,N
1667552535.4,286046998.3,N
1667552555.2,286046998.3,N
1667552575.0,286046999.6,N
1667552576.0,286046999.6,N
1667552595.8,286046999.0,N
1667552615.6,286047011.9,Y
1667552635.5,286047000.9,P
1667552655.3,286046999.7,N
1667552675.1,286047000.0,N
1667552695.9,286047000.9,N
1667552715.7,286046998.2,N
1667552735.6,286047000.8,N
1667552755.4,286047000.7,N
1667552775.2,286047000.7,N
1667552795.1,286047000.6,N
1667552815.9,286046998.2,N
1667552835.7,286046998.1,N
1667552855.6,286047001.1,N
1667552875.4,286047000.6,N
1667552895.2,286047001.2,N
1667552915.1,286047001.2,N
1667552916.0,286047001.2,N
1667552935.8,286047000.4,N
1667552955.6,286047000.9,N
1667552975.5,286047000.6,N
1667552995.3,286047000.4,N
1667553015.2,286047000.3,N
1667553035.9,286047001.1,N
1667553055.7,286047001.2,N
1667553075.6,286047000.7,N
1667553095.4,286046998.2,N
1667553115.2,286046998.8,N
1667553135.1,286046997.0,N
1667553136.0,286046997.0,N
1667553155.8,286046999.3,N
1667553175.7,286046996.9,N
1667553195.5,286046998.7,N
1667553215.3,286046998.1,N
1667553235.2,286047001.0,N
1667553255.0,286046998.7,N
1667553255.9,286046998.7,N
1667553275.8,286046998.3,N
1667553295.6,286046998.3,N
1667553315.4,286047000.9,N
1667553335.3,286046998.1,N
1667553355.1,286047001.0,N
1667553375.9,286047000.0,N
1667553395.7,286047002.4,N
1667553415.5,286047001.4,N
1667553435.4,286047003.6,N
1667553455.2,286047004.4,N
1667553475.0,286047002.0,N
1667553475.9,286047002.0,N
1667553495.8,286047001.6,N
1667553515.6,286047002.2,N
1667553535.5,286047001.8,N
1667553555.3,286047001.3,N
1667553575.1,286047001.4,N
1667553595.9,286047004.0,N
1667553615.7,286047001.5,N
1667553635.5,286047004.0,N
1667553655.4,286047004.3,N
1667553675.2,286047003.8,N
1667553695.1,286047003.9,N
1667553696.0,286047003.9,N
1667553715.8,286047004.1,N
1667553735.6,286047001.4,N
1667553755.5,286047004.0,N
1667553775.3,286047003.0,N
1667553795.2,286047003.7,N
1667553815.9,286047003.2,N
1667553835.7,286047004.2,N
1667553855.6,286047003.3,N
1667553875.4,286047001.4,N
1667553895.2,286047002.5,N
1667553915.1,286046998.2,N
1667553916.0,286046998.2,N
1667553935.8,286046999.9,N
1667553955.7,286047002.3,N
1667553975.5,286047002.4,N
1667553995.3,286047001.6,N
1667554015.2,286047001.7,N
1667554035.0,286047002.2,N
1667554035.9,286047002.2,N
1667554055.8,286047004.1,N
1667554075.6,286047002.1,N
1667554095.4,286047004.4,N
1667554115.3,286047001.6,N
1667554135.1,286047003.7,N
1667554155.8,286047004.3,N
1667554175.7,286047001.3,N
1667554195.5,286047003.6,N
1667554215.4,286047003.2,N
1667554235.2,286047005.4,Y
1667554255.0,286047001.3,P
1667554255.9,286047001.3,N
1667554275.8,286047001.3,N
1667554295.6,286047001.9,Y
1667554315.4,286046999.8,P
1667554335.3,286047000.0,N
1667554355.1,286047002.7,P
1667554375.9,286047002.4,N
1667554395.7,286047002.0,N
1667554415.5,286047004.3,Y
1667554435.4,286047000.2,P
1667554455.2,286047000.4,N
1667554475.1,286047000.8,N
1667554476.0,286047000.8,N
1667554495.8,286046998.7,Y
1667554515.6,286046996.8,P
1667554535.5,286046998.9,N
1667554555.3,286046998.5,N
1667554575.1,286047000.3,N
1667554595.9,286047001.1,N
1667554615.7,286047001.2,N
1667554635.6,286047001.1,N
1667554655.4,286046999.7,N
1667554675.2,286047000.8,N
1667554695.1,286047000.0,N
1667554696.0,286047000.0,N
1667554715.8,286047000.9,N
1667554735.6,286046998.7,N
1667554755.5,286046998.5,N
1667554775.3,286046997.0,N
1667554795.2,286046996.8,N
1667554815.0,286046998.6,N
1667554815.9,286046998.6,N
1667554835.7,286047000.8,N
1667554855.6,286047000.5,N
1667554875.4,286047000.5,N
1667554895.3,286046999.7,N
1667554915.1,286047000.4,N
1667554935.8,286047000.8,N
1667554955.7,286046998.1,N
1667554975.5,286046999.7,N
1667554995.4,286047002.8,N
1667555015.2,286047000.7,N
1667555035.0,286047000.6,N
1667555035.9,286047000.6,N
1667555055.8,286047000.7,N
1667555075.6,286047001.0,N
1667555095.5,286046999.8,N
1667555115.3,286047001.2,N
1667555135.1,286046999.5,N
1667555155.9,286046999.6,N
1667555175.7,286046997.6,N
1667555195.5,286046999.6,N
1667555215.4,286046999.0,N
1667555235.2,286046997.6,N
1667555255.1,286046997.3,N
1667555256.0,286046997.3,N
1667555275.8,286046998.2,N
1667555295.6,286047000.5,N
1667555315.5,286046998.2,N
1667555335.3,286046998.6,N
1667555355.1,286047002.4,N
1667555375.9,286047001.6,N
1667555395.7,286047002.0,N
1667555415.6,286047001.3,N
1667555435.4,286047001.7,N
1667555455.2,286047001.7,N
1667555475.1,286047000.4,N
1667555476.0,286047000.4,N
1667555495.8,286046999.5,N
1667555515.6,286046997.3,N
1667555535.5,286046995.2,Y
1667555555.3,286046995.3,P
1667555575.2,286046996.2,N
1667555595.9,286046998.0,N
1667555615.7,286046997.5,N
1667555635.6,286046999.5,N
1667555655.4,286046999.3,N
1667555675.2,286047001.1,N
1667555695.1,286047002.7,N
1667555696.0,286047002.7,N
1667555715.8,286047002.6,N
1667555735.7,286047002.2,N
1667555755.5,286047003.9,N
1667555775.3,286047005.5,N
1667555795.2,286047005.7,N
1667555815.0,286047003.2,N
1667555815.9,286047003.2,N
1667555835.7,286047003.6,N
1667555855.6,286047004.3,N
1667555875.4,286047003.9,N
1667555895.3,286047004.1,N
1667555915.1,286047004.1,N
1667555916.0,286047004.1,N
1667555935.8,286047001.9,N
1667555955.7,286047002.5,N
1667555975.5,286047002.3,N
1667555995.4,286046999.7,N
